GW7842 Weather Reports


time (UTC)temp
F
wind
direction
speed
knots
gust
knots
rain 1hr
in
rain 24hr
in
rain mn
in
humidity
%
barometer
mb
20260906121205 70 289 0.0 0.9 0.00 0.00 0.00 93 999.1
20260906120705 70 300 0.0 0.9 0.00 0.00 0.00 93 998.7
20260906120205 70 288 0.0 0.9 0.00 0.00 0.00 93 998.7
20260906115705 70 307 0.0 0.9 0.00 0.00 0.00 93 998.6
20260906115205 70 306 0.0 0.9 0.00 0.00 0.00 93 998.6
20260906114705 70 268 0.0 0.0 0.00 0.00 0.00 93 998.5
20260906114205 70 268 0.0 0.0 0.00 0.00 0.00 94 998.6
20260906113705 70 268 0.0 0.0 0.00 0.00 0.00 94 998.5
20260906113206 69 268 0.0 0.9 0.00 0.00 0.00 94 998.4
20260906112705 69 268 0.0 0.9 0.00 0.00 0.00 94 998.3
20260906112205 69 268 0.0 0.0 0.00 0.00 0.00 94 998.0
20260906111205 69 268 0.0 0.0 0.00 0.00 0.00 94 998.2
20260906110705 69 270 0.0 0.9 0.00 0.00 0.00 94 998.1
20260906110205 69 283 0.0 0.9 0.00 0.00 0.00 95 998.2
20260906105705 69 283 0.0 0.0 0.00 0.00 0.00 94 998.2
20260906105205 69 286 0.0 0.0 0.00 0.00 0.00 94 997.9
20260906104705 69 286 0.0 0.0 0.00 0.00 0.00 94 997.8
20260906104205 69 286 0.0 0.0 0.00 0.00 0.00 94 997.7
20260906103705 69 286 0.0 0.0 0.00 0.00 0.00 94 997.7
20260906103205 69 286 0.0 0.0 0.00 0.00 0.00 94 997.8
20260906102705 69 286 0.0 0.0 0.00 0.00 0.00 94 997.7
20260906102205 69 286 0.0 0.0 0.00 0.00 0.00 94 997.7
20260906101205 70 286 0.0 0.0 0.00 0.00 0.00 93 997.7
20260906100705 70 286 0.0 0.0 0.00 0.00 0.00 93 997.6
20260906095705 70 286 0.0 0.0 0.00 0.00 0.00 93 997.6
20260906095205 70 286 0.0 0.0 0.00 0.00 0.00 93 997.6
20260906094205 70 286 0.0 0.0 0.00 0.00 0.00 93 997.5
20260906093705 71 286 0.0 0.0 0.00 0.00 0.00 92 997.5
20260906093205 71 286 0.0 0.0 0.00 0.00 0.00 92 997.5
20260906092704 71 286 0.0 0.0 0.00 0.00 0.00 92 997.5
20260906092205 71 286 0.0 0.0 0.00 0.00 0.00 92 997.5
20260906091705 71 286 0.0 0.0 0.00 0.00 0.00 92 997.4
20260906091205 71 286 0.0 0.9 0.00 0.00 0.00 92 997.3
20260906090705 71 288 0.0 0.9 0.00 0.00 0.00 92 997.3
20260906085705 71 300 0.0 0.9 0.00 0.00 0.00 92 997.4
20260906085205 71 300 0.0 0.9 0.00 0.00 0.00 92 997.4
20260906084705 71 296 0.0 0.9 0.00 0.00 0.00 92 997.4
20260906084204 71 297 0.0 0.9 0.00 0.00 0.00 91 997.4
20260906083205 71 297 0.0 0.0 0.00 0.00 0.00 91 997.4
20260906082204 72 297 0.0 0.0 0.00 0.00 0.00 90 997.3
20260906081705 72 297 0.0 0.9 0.00 0.00 0.00 90 997.4
20260906080204 72 297 0.0 0.0 0.00 0.00 0.00 90 997.6
20260906075205 73 297 0.0 0.9 0.00 0.00 0.00 89 997.5
20260906074705 73 295 0.0 0.9 0.00 0.00 0.00 89 997.5
20260906074204 73 272 0.0 0.9 0.00 0.00 0.00 89 997.5
20260906073205 73 322 0.0 2.6 0.00 0.00 0.00 89 997.5
20260906072704 73 343 0.9 2.6 0.00 0.00 0.00 89 997.5
20260906072205 73 306 0.0 2.6 0.00 0.00 0.00 89 997.5
20260906071204 73 295 0.0 0.9 0.00 0.00 0.00 89 997.6
20260906070704 73 226 0.0 0.9 0.00 0.00 0.00 89 997.7
20260906070205 73 6 0.0 2.6 0.00 0.00 0.00 89 997.6
20260906065704 73 6 0.0 2.6 0.00 0.00 0.00 89 997.6
20260906065205 73 301 0.0 0.9 0.00 0.00 0.00 89 997.6
20260906064204 73 299 0.0 0.9 0.00 0.00 0.00 89 997.5
20260906063704 73 293 0.0 0.9 0.00 0.00 0.00 89 997.5
20260906063205 73 328 0.0 1.7 0.00 0.00 0.00 89 997.6
20260906061704 73 15 0.0 2.6 0.00 0.00 0.00 88 997.5
20260906061204 73 286 0.0 2.6 0.00 0.00 0.00 88 997.5
20260906060704 74 292 0.9 2.6 0.00 0.00 0.00 88 997.6
20260906060204 74 37 0.0 1.7 0.00 0.00 0.00 88 997.6
20260906055704 74 294 0.0 2.6 0.00 0.00 0.00 88 997.6
20260906054704 74 220 0.0 2.6 0.00 0.00 0.00 88 997.6
20260906054204 74 297 0.9 2.6 0.00 0.00 0.00 88 997.5
20260906053704 74 290 0.0 2.6 0.00 0.00 0.00 88 997.6
20260906052705 74 274 0.0 2.6 0.00 0.00 0.00 88 997.5
20260906052204 74 302 0.0 2.6 0.00 0.00 0.00 88 997.4
20260906051704 74 358 0.0 0.9 0.00 0.00 0.00 88 997.4
20260906051204 74 280 0.0 4.3 0.00 0.00 0.00 88 997.3
20260906050705 73 280 0.0 4.3 0.00 0.00 0.00 88 997.3
20260906050204 73 318 0.9 2.6 0.00 0.00 0.00 88 997.3
20260906045704 73 340 0.0 2.6 0.00 0.00 0.00 88 997.3
20260906045204 73 95 0.0 2.6 0.00 0.00 0.00 88 997.2
20260906044204 73 329 0.0 1.7 0.00 0.00 0.00 88 997.1
20260906043204 73 319 0.9 5.2 0.00 0.00 0.00 88 996.8
20260906042704 73 297 0.9 4.3 0.00 0.00 0.00 88 996.7
20260906042203 73 276 0.0 1.7 0.00 0.00 0.00 88 996.6
20260906041204 73 273 0.9 2.6 0.00 0.00 0.00 87 996.5
20260906040703 73 283 0.0 1.7 0.00 0.00 0.00 87 996.5
20260906040204 73 29 0.0 1.7 0.00 0.00 0.00 87 996.6
20260906035704 74 256 0.0 1.7 0.00 0.00 0.00 87 996.5
20260906035204 74 248 0.0 0.9 0.00 0.00 0.00 87 996.5
20260906034704 74 278 0.0 2.6 0.00 0.00 0.00 87 996.5
20260906034204 74 248 0.0 2.6 0.00 0.00 0.00 86 996.4
20260906033704 74 344 0.0 2.6 0.00 0.00 0.00 86 996.3
20260906033203 74 8 0.0 2.6 0.00 0.00 0.00 86 996.4
20260906032703 74 25 0.0 4.3 0.00 0.00 0.00 86 996.4
20260906032204 74 108 0.0 4.3 0.00 0.00 0.00 86 996.6
20260906031704 74 232 0.9 2.6 0.00 0.00 0.00 86 996.6
20260906030703 74 108 0.0 1.7 0.00 0.00 0.00 86 996.5
20260906025703 74 269 0.9 2.6 0.00 0.00 0.00 85 996.5
20260906022704 74 63 0.9 6.1 0.00 0.00 0.00 85 996.4
20260906022206 74 28 0.0 6.1 0.00 0.00 0.00 85 996.4
20260906021206 74 251 0.0 6.1 0.00 0.00 0.00 85 996.5
20260906020706 74 241 0.9 6.1 0.00 0.00 0.00 85 996.5
20260906020205 74 270 0.0 6.1 0.00 0.00 0.00 86 996.5
20260906015705 74 18 0.0 6.1 0.00 0.00 0.00 86 996.6
20260906015206 74 281 0.9 6.1 0.00 0.00 0.00 86 996.7
20260906014706 74 255 0.9 4.3 0.00 0.00 0.00 86 996.7
20260906013705 74 324 0.0 4.3 0.00 0.00 0.00 86 996.6
20260906013206 74 282 1.7 6.1 0.00 0.00 0.00 86 996.5
20260906012705 74 299 1.7 8.7 0.00 0.00 0.00 86 996.6
20260906011205 73 298 0.9 4.3 0.00 0.00 0.00 87 996.6
20260906010205 73 24 1.7 7.0 0.00 0.00 0.00 86 996.4
20260906005705 74 266 1.7 6.1 0.00 0.00 0.00 87 996.4
20260906005206 74 279 0.0 6.1 0.00 0.00 0.00 86 996.2
20260906004705 74 18 1.7 5.2 0.00 0.00 0.00 86 996.2
20260906004205 74 239 0.0 6.1 0.00 0.00 0.00 86 996.0
20260906003706 74 322 0.9 6.1 0.00 0.00 0.00 86 996.0
20260906003205 74 288 2.6 6.1 0.00 0.00 0.00 86 996.0
20260906002705 74 138 1.7 8.7 0.00 0.00 0.00 86 996.0
20260906002206 74 353 1.7 8.7 0.00 0.00 0.00 86 995.9
20260906001705 74 251 0.9 7.0 0.00 0.00 0.00 86 995.9
20260906000705 74 312 2.6 8.7 0.00 0.00 0.00 85 995.9
20260906000206 74 313 0.9 8.7 0.00 0.00 0.00 85 995.9
20260905235706 74 44 0.9 5.2 0.00 0.00 0.00 85 995.9
20260905234706 75 312 1.7 6.1 0.00 0.00 0.00 85 995.9
20260905234206 75 301 1.7 6.1 0.00 0.00 0.00 84 995.9
20260905233706 75 271 0.9 5.2 0.00 0.00 0.00 84 995.9
20260905233205 76 254 0.9 7.8 0.00 0.00 0.00 83 995.8
20260905232706 76 11 1.7 7.8 0.00 0.00 0.00 82 995.8
20260905232205 77 294 0.9 7.0 0.00 0.00 0.00 82 995.6
20260905231705 77 89 0.9 6.1 0.00 0.00 0.00 81 995.5
20260905231205 78 79 0.9 6.1 0.00 0.00 0.00 80 995.5
20260905230705 78 78 0.0 7.0 0.00 0.00 0.00 81 995.5
20260905230205 78 255 1.7 7.8 0.00 0.00 0.00 80 995.5
20260905225705 78 327 1.7 7.8 0.00 0.00 0.00 80 995.5
20260905225205 79 316 0.9 7.0 0.00 0.00 0.00 79 995.5
20260905224705 79 3 2.6 7.8 0.00 0.00 0.00 78 995.4
20260905224205 80 294 1.7 7.8 0.00 0.00 0.00 78 995.3
20260905223705 80 9 0.9 7.8 0.00 0.00 0.00 77 995.2
20260905223205 81 355 2.6 6.1 0.00 0.00 0.00 76 995.1
20260905222205 81 287 0.9 8.7 0.00 0.00 0.00 75 995.1
20260905221205 81 288 1.7 7.0 0.00 0.00 0.00 75 995.2
20260905220205 82 289 0.0 6.1 0.00 0.00 0.00 74 995.1
20260905215205 82 267 0.9 6.1 0.00 0.00 0.00 74 995.2
20260905214205 82 252 0.9 2.6 0.00 0.00 0.00 73 995.1
20260905213705 82 355 0.9 4.3 0.00 0.00 0.00 73 995.2
20260905213204 82 275 0.9 5.2 0.00 0.00 0.00 73 995.1
20260905212705 82 302 0.9 5.2 0.00 0.00 0.00 73 995.1
20260905212205 82 200 1.7 4.3 0.00 0.00 0.00 74 995.1
20260905211705 82 17 0.0 4.3 0.00 0.00 0.00 75 995.0
20260905210705 81 284 0.9 2.6 0.00 0.00 0.00 76 995.2
20260905205705 81 263 0.9 5.2 0.00 0.00 0.00 78 995.3
20260905205205 80 281 0.9 5.2 0.00 0.00 0.00 79 995.4
20260905204205 80 261 0.0 5.2 0.00 0.00 0.00 78 995.3
20260905203705 80 274 1.7 5.2 0.00 0.00 0.00 78 995.3
20260905203204 80 295 2.6 5.2 0.00 0.00 0.00 77 995.3
20260905202704 81 247 0.9 6.1 0.00 0.00 0.00 77 995.3
20260905202205 81 288 1.7 6.1 0.00 0.00 0.00 77 995.2
20260905201705 81 294 1.7 6.1 0.00 0.00 0.00 77 995.2
20260905201205 81 252 0.9 10.4 0.00 0.00 0.00 78 995.3
20260905200705 81 291 0.9 10.4 0.00 0.00 0.00 77 995.4
20260905200205 81 279 0.9 7.0 0.00 0.00 0.00 77 995.4
20260905195205 81 273 1.7 7.8 0.00 0.00 0.00 77 995.4
20260905194704 81 302 1.7 7.8 0.00 0.00 0.00 77 995.3
20260905194204 81 279 2.6 6.1 0.00 0.00 0.00 77 995.3
20260905193704 81 273 1.7 5.2 0.00 0.00 0.00 76 995.3
20260905193205 82 246 1.7 5.2 0.00 0.00 0.00 76 995.5
20260905192704 82 282 0.9 4.3 0.00 0.00 0.00 76 995.5
20260905192204 82 249 0.9 5.2 0.00 0.00 0.00 76 995.5
20260905191704 82 42 0.9 7.0 0.00 0.00 0.00 76 995.5
20260905191204 82 294 1.7 7.0 0.00 0.00 0.00 76 995.5
20260905190204 82 299 1.7 6.1 0.00 0.00 0.00 75 995.5
20260905185704 82 262 0.9 7.0 0.00 0.00 0.00 76 995.5
20260905185204 83 290 2.6 7.0 0.00 0.00 0.00 76 995.4
20260905184704 82 356 1.7 6.1 0.00 0.00 0.00 75 995.5
20260905184204 83 296 1.7 5.2 0.00 0.00 0.00 74 995.6
20260905183704 83 288 0.9 5.2 0.00 0.00 0.00 74 995.6
20260905183204 83 273 0.9 6.1 0.00 0.00 0.00 73 995.6
20260905182704 84 253 1.7 6.1 0.00 0.00 0.00 75 995.7
20260905181704 83 348 0.9 5.2 0.00 0.00 0.00 74 995.5
20260905181204 84 37 0.0 4.3 0.00 0.00 0.00 72 995.4
20260905180704 84 279 0.9 6.1 0.00 0.00 0.00 72 995.4
20260905180205 84 260 1.7 6.1 0.00 0.00 0.00 74 995.4
20260905175704 84 63 0.9 6.1 0.00 0.00 0.00 73 995.4
20260905175204 85 276 0.9 4.3 0.00 0.00 0.00 71 995.3
20260905174204 84 287 0.9 6.1 0.00 0.00 0.00 73 995.4
20260905173205 84 293 0.9 6.1 0.00 0.00 0.00 73 995.4
20260905172204 84 284 1.7 5.2 0.00 0.00 0.00 74 995.4
20260905171704 85 248 1.7 4.3 0.00 0.00 0.00 73 995.4
20260905171204 85 270 0.9 5.2 0.00 0.00 0.00 74 995.4
20260905170704 84 338 0.9 5.2 0.00 0.00 0.00 75 995.3
20260905165704 83 315 0.9 6.1 0.00 0.00 0.00 78 995.6
20260905165204 83 312 1.7 6.1 0.00 0.00 0.00 76 995.6
20260905164704 83 286 1.7 5.2 0.00 0.00 0.00 76 995.5
20260905164204 83 258 1.7 6.1 0.00 0.00 0.00 76 995.6
20260905163704 84 268 1.7 6.1 0.00 0.00 0.00 74 995.4
20260905163204 85 256 0.0 4.3 0.00 0.00 0.00 74 995.4
20260905162704 85 301 0.9 5.2 0.00 0.00 0.00 74 995.5
20260905162204 85 282 0.9 5.2 0.00 0.00 0.00 73 995.5
20260905161704 86 327 0.9 5.2 0.00 0.00 0.00 72 995.5
20260905161204 85 87 0.0 4.3 0.00 0.00 0.00 74 995.5
20260905160703 85 330 0.0 4.3 0.00 0.00 0.00 73 995.4
20260905160204 84 10 0.9 4.3 0.00 0.00 0.00 74 995.4
20260905155703 84 333 0.9 5.2 0.00 0.00 0.00 75 995.4
20260905155204 84 307 0.9 5.2 0.00 0.00 0.00 75 995.3
20260905154703 84 37 0.0 6.1 0.00 0.00 0.00 75 995.3
20260905153704 83 31 0.9 4.3 0.00 0.00 0.00 76 995.2
20260905153203 83 323 0.9 4.3 0.00 0.00 0.00 76 995.2
20260905152704 83 287 0.9 2.6 0.00 0.00 0.00 76 995.2
20260905151203 82 80 0.9 2.6 0.00 0.00 0.00 78 995.1
20260905150203 82 339 0.9 5.2 0.00 0.00 0.00 80 995.0
20260905145703 81 345 0.9 2.6 0.00 0.00 0.00 81 995.1
20260905145204 81 259 0.9 6.1 0.00 0.00 0.00 81 995.1
20260905144703 81 279 0.9 6.1 0.00 0.00 0.00 81 995.0
20260905144204 81 283 1.7 5.2 0.00 0.00 0.00 82 995.0
20260905143704 81 307 1.7 6.1 0.00 0.00 0.00 81 994.9
20260905143204 81 259 0.9 6.1 0.00 0.00 0.00 81 994.9
20260905142703 80 320 0.0 5.2 0.00 0.00 0.00 83 994.9
20260905142204 80 281 1.7 5.2 0.00 0.00 0.00 83 994.9
20260905141706 80 287 0.9 4.3 0.00 0.00 0.00 84 994.7
20260905141206 79 327 0.9 7.0 0.00 0.00 0.00 86 994.7
20260905140706 79 291 1.7 7.0 0.00 0.00 0.00 86 994.7
20260905135205 77 277 0.9 6.1 0.00 0.00 0.00 90 994.7
20260905134706 77 265 0.9 6.1 0.00 0.00 0.00 91 994.6
20260905134206 76 310 1.7 5.2 0.00 0.00 0.00 91 994.8
20260905133706 76 293 0.9 4.3 0.00 0.00 0.00 91 994.9
20260905133206 76 289 0.9 4.3 0.00 0.00 0.00 91 995.0
20260905132705 76 287 0.9 5.2 0.00 0.00 0.00 91 995.1
20260905132205 76 273 0.9 5.2 0.00 0.00 0.00 91 995.1
20260905131705 76 282 2.6 5.2 0.00 0.00 0.00 91 994.9
20260905131205 76 296 0.9 5.2 0.00 0.00 0.00 92 994.7
20260905130705 76 295 0.0 2.6 0.00 0.00 0.00 92 994.7
20260905130205 76 289 0.0 4.3 0.00 0.00 0.00 92 994.5
20260905125705 75 280 0.9 4.3 0.00 0.00 0.00 92 994.4
20260905124705 75 355 0.9 4.3 0.00 0.00 0.00 92 994.4
20260905124205 75 90 0.9 4.3 0.00 0.00 0.00 92 994.4
20260905123705 76 246 0.9 2.6 0.00 0.00 0.00 92 994.2
20260905123205 76 320 0.0 4.3 0.00 0.00 0.00 92 994.1
20260905122705 76 332 0.0 4.3 0.00 0.00 0.00 92 994.1
20260905121705 76 266 0.9 2.6 0.00 0.00 0.00 91 994.0